Погода в Новом Олове

Россия / Забайкальский край     52°36′00″N   116°31′03″E
темп.,
°C
ветер,
м/с
пор.,
м/с
влажн.,
%
обл.,
%
осадки,
мм/ч
давл.,
гПа
погр.,
м
24 мая, вт
вт2400:00+8с12484 0.0 101312
03:00+7ссв225126 0.0 101624
06:00+7с23635 0.0 101845
09:00+15ссз35375 0.0 10191034
12:00+19с5723100 0.0 10183096
15:00+22с5718100 0.0 10163533
18:00+22с571842 0.0 10163392
21:00+16с33321 0.0 101836
25 мая, ср
ср2500:00+12с33425 0.0 102019
03:00+11сз22495 0.0 102012
06:00+10сз22528 0.0 102116
09:00+18сз23336 0.0 1019578
12:00+22з35225 0.0 10162887
15:00+24зсз45175 0.0 10133238
18:00+25зюз251646 0.0 10103498
21:00+18ссв332621 0.0 101018
26 мая, чт
чт2600:00+14св113172 0.0 101010
03:00+12св11364 0.0 100910
06:00+12в11415 0.0 100910
09:00+18юз22300 0.0 1007408
12:00+23юз35201 0.0 10032771
15:00+26зюз681592 0.0 9984100
18:00+25зюз7816100 0.0 9953640
21:00+20ссз472579 0.0 995225
27 мая, пт
пт2700:00+16с223819 0.0 99523
03:00+10сз227212 0.4 99419
06:00+9зсз26804 0.2 995184
09:00+13ссз684588 0.2 995988
12:00+11сз8961100 0.3 9971046
15:00+13сз7941100 1.3 9961865
18:00+13с9113448 0.0 9972002
21:00+9с59480 0.0 999444
28 мая, сб
сб2800:00+6ссз49645 0.0 1001359
03:00+4ссз410685 0.0 1002358
06:00+3сз511725 0.0 1002631
09:00+9ссз78435 0.0 10011411
12:00+12ссз7831100 0.0 9992567
15:00+14ссз7929100 0.0 9992756
18:00+14с672995 0.0 9982432
21:00+9с474178 0.0 1001178